Regional Weather Roundup
Issued by NWS

Home | Current Version | Previous Version | Graphics & Text | Print | Product List | Glossary On
Versions: 1 2 3 4 5 6 7 8 9 10 11 12 13 14 15 16 17 18 19 20 21 22 23 24 25 26 27 28 29 30 31 32 33 34 35 36 37 38 39 40 41 42 43 44 45 46 47 48 49 50
000
ASUS45 KSLC 022310
RWRUT
UTAH REGIONAL WEATHER ROUNDUP
NATIONAL WEATHER SERVICE SALT LAKE CITY UT
500 PM MDT SUN AUG 02 2015

UTZ001>011-023>025-030000-

NORTHERN UTAH

CITY           SKY/WX    TMP DP  RH WIND       PRES   REMARKS
BRIGHAM CITY   PTSUNNY   94  29  10 SW5       29.92F
HILL AFB       CLOUDY    86  45  24 S21G26    30.01R
LOGAN          SUNNY     96  29   9 NW9       29.92F HX  90
OGDEN          PTSUNNY   88  41  19 S20       29.97R
PROVO AIRPORT  PTSUNNY   79  48  34 S9        30.05R
SALT LAKE CITY LGT RAIN  82  47  29 W30G41    29.95F
VERNAL         LGT RAIN  77  44  30 N21G32    30.06F
WENDOVER       PTSUNNY   95  32  11 SE13      29.94F HX  90
HEBER CITY     CLOUDY    77  45  31 S6        30.09F
WEST JORDAN    SUNNY     81  48  32 CALM      30.05R

$$

UTZ012>022-026-027-030000-

SOUTHERN/CENTRAL UTAH

CITY           SKY/WX    TMP DP  RH WIND       PRES   REMARKS
BLANDING       CLOUDY    66  62  85 S9        30.21F
BRYCE CANYON   LGT RAIN  67  50  54 NE14G20   30.25S
CEDAR CITY     CLOUDY    83  40  21 W6        30.10F
HANKSVILLE     CLOUDY    70  61  73 NW7       30.10S
MILFORD        CLOUDY    84  42  22 E7        30.04S
MOAB/CYNLANDS  PTSUNNY   79  58  48 W9        30.03S
PRICE          CLOUDY    75  52  44 SW9       30.15S
ST GEORGE      CLOUDY    93  52  24 CALM      29.90F HX  90
KANAB          CLOUDY    82  54  36 CALM      30.10F

$$

REGIONAL REPORTS     COLORADO/ARIZONA

CITY           SKY/WX    TMP DP  RH WIND       PRES   REMARKS
CRAIG, CO      CLOUDY    84  47  27 W14       30.08F
GRAND JUNCTION CLOUDY    79  52  38 SW5       30.05S
RIFLE          CLOUDY    82  50  32 NW12      30.05F
MONTROSE       CLOUDY    70  57  63 S6        30.15F
CORTEZ         SUNNY     71  60  68 NW12      30.15F
PAGE, AZ       CLOUDY    78  61  55 N6        30.04S
GRAND CANYON   CLOUDY    69  58  67 SE6       30.20F
KINGMAN        MOSUNNY   94  44  17 W8        29.94F HX  90
FLAGSTAFF      TSTM      65  51  60 W7        30.25S

$$

REGIONAL REPORTS    NEVADA/IDAHO/WYOMING

CITY           SKY/WX    TMP DP  RH WIND       PRES   REMARKS
LAS VEGAS, NV  MOSUNNY  101  48  16 E9        29.78F HX  97
ELY            CLOUDY    81  38  21 S10       30.14S
ELKO           PTSUNNY   92  33  12 VRB5      29.99F
POCATELLO, ID  MOSUNNY   96  32  10 NW10      29.95F HX  90
BURLEY         PTSUNNY   93  38  14 N3        29.91F
EVANSTON, WY   PTSUNNY   82  30  15 SW18G24   30.16S
ROCK SPRINGS   PTSUNNY   86  27  11 SE10      30.12F
KEMMERER       MOSUNNY  N/A N/A N/A CALM      30.17F

$$



USA.gov is the U.S. government's official web portal to all federal, state and local government web resources and services.